| time (UTC) | temp C | wind direction | speed KPH | gust KPH | rain 1hr cm | rain 24hr cm | rain mn cm | humidity % | barometer mb |
| 20260505050835 | 14 | 164 | 1.6 | 4.8 | 0.00 | 0.00 | 0.00 | 64 | 1015.6 |
| 20260505050334 | 13 | 209 | 3.2 | 4.8 | 0.00 | 0.00 | 0.00 | 64 | 1015.5 |
| 20260505041301 | 15 | 167 | 0.0 | 0.0 | 0.00 | 0.00 | 0.00 | 60 | 1015.7 |
| 20260505040758 | 15 | 200 | 1.6 | 1.6 | 0.00 | 0.00 | 0.00 | 60 | 1015.5 |
| 20260505040255 | 15 | 191 | 0.0 | 0.0 | 0.00 | 0.00 | 0.00 | 59 | 1015.5 |
| 20260505035752 | 15 | 178 | 0.0 | 3.2 | 0.00 | 0.00 | 0.00 | 58 | 1015.5 |
| 20260505035248 | 15 | 196 | 0.0 | 3.2 | 0.00 | 0.00 | 0.00 | 58 | 1015.5 |
| 20260505034745 | 15 | 227 | 1.6 | 4.8 | 0.00 | 0.00 | 0.00 | 58 | 1015.7 |
| 20260505034242 | 15 | 191 | 3.2 | 3.2 | 0.00 | 0.00 | 0.00 | 58 | 1015.7 |
| 20260505033738 | 15 | 214 | 1.6 | 3.2 | 0.00 | 0.00 | 0.00 | 59 | 1015.9 |
| 20260505033236 | 15 | 185 | 0.0 | 3.2 | 0.00 | 0.00 | 0.00 | 58 | 1015.7 |
| 20260505032734 | 16 | 180 | 0.0 | 1.6 | 0.00 | 0.00 | 0.00 | 57 | 1015.7 |
| 20260505032230 | 15 | 175 | 1.6 | 3.2 | 0.00 | 0.00 | 0.00 | 57 | 1015.7 |
| 20260505031727 | 15 | 188 | 1.6 | 3.2 | 0.00 | 0.00 | 0.00 | 57 | 1015.8 |
| 20260505031223 | 15 | 170 | 1.6 | 3.2 | 0.00 | 0.00 | 0.00 | 59 | 1015.5 |
| 20260505030721 | 15 | 186 | 1.6 | 4.8 | 0.00 | 0.00 | 0.00 | 59 | 1015.6 |
| 20260505030217 | 14 | 170 | 0.0 | 1.6 | 0.00 | 0.00 | 0.00 | 60 | 1015.7 |
| 20260505025713 | 14 | 174 | 0.0 | 1.6 | 0.00 | 0.00 | 0.00 | 62 | 1015.5 |
| 20260505025211 | 13 | 191 | 0.0 | 0.0 | 0.00 | 0.00 | 0.00 | 64 | 1015.6 |
| 20260505024709 | 13 | 193 | 0.0 | 0.0 | 0.00 | 0.00 | 0.00 | 64 | 1015.4 |
| 20260505024206 | 13 | 168 | 0.0 | 0.0 | 0.00 | 0.00 | 0.00 | 63 | 1015.6 |
| 20260505023703 | 13 | 225 | 0.0 | 0.0 | 0.00 | 0.00 | 0.00 | 63 | 1015.5 |
| 20260505023200 | 14 | 195 | 0.0 | 0.0 | 0.00 | 0.00 | 0.00 | 61 | 1015.4 |
| 20260505022658 | 14 | 241 | 0.0 | 0.0 | 0.00 | 0.00 | 0.00 | 61 | 1015.4 |
| 20260505022154 | 15 | 180 | 0.0 | 0.0 | 0.00 | 0.00 | 0.00 | 60 | 1015.5 |
| 20260505021651 | 15 | 183 | 0.0 | 0.0 | 0.00 | 0.00 | 0.00 | 58 | 1015.7 |
| 20260505021148 | 15 | 178 | 0.0 | 0.0 | 0.00 | 0.00 | 0.00 | 57 | 1015.4 |
| 20260505020644 | 16 | 183 | 0.0 | 1.6 | 0.00 | 0.00 | 0.00 | 55 | 1015.7 |
| 20260505020140 | 16 | 164 | 0.0 | 0.0 | 0.00 | 0.00 | 0.00 | 55 | 1015.5 |
| 20260505015637 | 16 | 176 | 0.0 | 0.0 | 0.00 | 0.00 | 0.00 | 55 | 1015.4 |
| 20260505015133 | 16 | 169 | 0.0 | 0.0 | 0.00 | 0.00 | 0.00 | 54 | 1015.2 |
| 20260505014630 | 17 | 173 | 0.0 | 0.0 | 0.00 | 0.00 | 0.00 | 51 | 1015.3 |
| 20260505014127 | 18 | 165 | 0.0 | 1.6 | 0.00 | 0.00 | 0.00 | 51 | 1015.2 |
| 20260505013625 | 18 | 156 | 1.6 | 1.6 | 0.00 | 0.00 | 0.00 | 50 | 1015.2 |
| 20260505013122 | 18 | 162 | 1.6 | 4.8 | 0.00 | 0.00 | 0.00 | 49 | 1015.1 |
| 20260505012620 | 18 | 196 | 3.2 | 4.8 | 0.00 | 0.00 | 0.00 | 48 | 1015.1 |
| 20260505012117 | 19 | 211 | 3.2 | 4.8 | 0.00 | 0.00 | 0.00 | 48 | 1015.1 |
| 20260505011612 | 19 | 185 | 4.8 | 11.3 | 0.00 | 0.00 | 0.00 | 47 | 1015.1 |
| 20260505011110 | 19 | 174 | 3.2 | 9.7 | 0.00 | 0.00 | 0.00 | 47 | 1014.9 |
| 20260505010605 | 19 | 184 | 1.6 | 8.0 | 0.00 | 0.00 | 0.00 | 47 | 1014.9 |
| 20260505005558 | 18 | 228 | 6.4 | 8.0 | 0.00 | 0.00 | 0.00 | 47 | 1015.0 |
| 20260505005055 | 18 | 205 | 6.4 | 8.0 | 0.00 | 0.00 | 0.00 | 49 | 1014.7 |
| 20260505004552 | 18 | 175 | 3.2 | 8.0 | 0.00 | 0.00 | 0.00 | 49 | 1014.8 |
| 20260505004049 | 17 | 171 | 0.0 | 1.6 | 0.00 | 0.00 | 0.00 | 49 | 1014.7 |
| 20260505003546 | 17 | 189 | 0.0 | 0.0 | 0.00 | 0.00 | 0.00 | 49 | 1014.6 |
| 20260505003043 | 18 | 187 | 0.0 | 0.0 | 0.00 | 0.00 | 0.00 | 47 | 1014.5 |
| 20260505002538 | 18 | 182 | 0.0 | 1.6 | 0.00 | 0.00 | 0.00 | 46 | 1014.3 |
| 20260505002037 | 19 | 183 | 0.0 | 0.0 | 0.00 | 0.00 | 0.00 | 45 | 1014.5 |
| 20260505001534 | 20 | 178 | 0.0 | 1.6 | 0.00 | 0.00 | 0.00 | 44 | 1014.5 |
| 20260505001031 | 20 | 159 | 3.2 | 3.2 | 0.00 | 0.00 | 0.00 | 43 | 1014.6 |
| 20260505000529 | 20 | 159 | 3.2 | 3.2 | 0.00 | 0.00 | 0.00 | 43 | 1014.4 |
| 20260505000026 | 20 | 169 | 3.2 | 4.8 | 0.00 | 0.00 | 0.00 | 42 | 1014.4 |
| 20260504235523 | 20 | 166 | 1.6 | 3.2 | 0.00 | 0.00 | 0.00 | 42 | 1014.3 |
| 20260504235019 | 21 | 172 | 3.2 | 4.8 | 0.00 | 0.00 | 0.00 | 41 | 1014.4 |
| 20260504234516 | 21 | 159 | 3.2 | 3.2 | 0.00 | 0.00 | 0.00 | 41 | 1014.5 |
| 20260504234013 | 21 | 187 | 4.8 | 8.0 | 0.00 | 0.00 | 0.00 | 40 | 1014.1 |
| 20260504233509 | 21 | 203 | 3.2 | 4.8 | 0.00 | 0.00 | 0.00 | 41 | 1014.1 |
| 20260504233006 | 21 | 202 | 4.8 | 4.8 | 0.00 | 0.00 | 0.00 | 40 | 1014.3 |
| 20260504232503 | 21 | 216 | 3.2 | 4.8 | 0.00 | 0.00 | 0.00 | 39 | 1014.0 |
| 20260504232001 | 22 | 171 | 4.8 | 9.7 | 0.00 | 0.00 | 0.00 | 38 | 1014.1 |
| 20260504231456 | 22 | 179 | 3.2 | 8.0 | 0.00 | 0.00 | 0.00 | 38 | 1014.2 |
| 20260504230953 | 22 | 206 | 6.4 | 12.9 | 0.00 | 0.00 | 0.00 | 37 | 1014.2 |
| 20260504230449 | 22 | 187 | 4.8 | 12.9 | 0.00 | 0.00 | 0.00 | 36 | 1014.0 |
| 20260504225949 | 22 | 182 | 4.8 | 8.0 | 0.00 | 0.00 | 0.00 | 36 | 1014.0 |
| 20260504225445 | 23 | 199 | 4.8 | 8.0 | 0.00 | 0.00 | 0.00 | 36 | 1014.0 |
| 20260504224942 | 23 | 192 | 4.8 | 11.3 | 0.00 | 0.00 | 0.00 | 36 | 1014.0 |
| 20260504224438 | 23 | 183 | 8.0 | 12.9 | 0.00 | 0.00 | 0.00 | 35 | 1013.9 |
| 20260504223936 | 23 | 178 | 6.4 | 12.9 | 0.00 | 0.00 | 0.00 | 35 | 1014.2 |
| 20260504223431 | 23 | 158 | 6.4 | 8.0 | 0.00 | 0.00 | 0.00 | 35 | 1014.1 |
| 20260504222927 | 23 | 206 | 6.4 | 11.3 | 0.00 | 0.00 | 0.00 | 34 | 1014.0 |
| 20260504222425 | 23 | 202 | 6.4 | 12.9 | 0.00 | 0.00 | 0.00 | 34 | 1014.0 |
| 20260504221923 | 23 | 183 | 3.2 | 12.9 | 0.00 | 0.00 | 0.00 | 34 | 1014.1 |
| 20260504221419 | 23 | 220 | 8.0 | 14.5 | 0.00 | 0.00 | 0.00 | 34 | 1014.2 |
| 20260504220916 | 23 | 206 | 6.4 | 14.5 | 0.00 | 0.00 | 0.00 | 34 | 1014.0 |
| 20260504220413 | 23 | 203 | 6.4 | 14.5 | 0.00 | 0.00 | 0.00 | 34 | 1014.1 |
| 20260504215910 | 23 | 198 | 6.4 | 12.9 | 0.00 | 0.00 | 0.00 | 34 | 1014.2 |
| 20260504215407 | 23 | 209 | 9.7 | 12.9 | 0.00 | 0.00 | 0.00 | 33 | 1014.1 |
| 20260504214903 | 23 | 223 | 6.4 | 12.9 | 0.00 | 0.00 | 0.00 | 34 | 1014.1 |
| 20260504214400 | 23 | 189 | 11.3 | 12.9 | 0.00 | 0.00 | 0.00 | 34 | 1014.0 |
| 20260504213857 | 23 | 187 | 8.0 | 11.3 | 0.00 | 0.00 | 0.00 | 34 | 1014.0 |
| 20260504213352 | 24 | 205 | 9.7 | 14.5 | 0.00 | 0.00 | 0.00 | 33 | 1014.0 |
| 20260504212850 | 24 | 215 | 9.7 | 12.9 | 0.00 | 0.00 | 0.00 | 32 | 1014.1 |
| 20260504212346 | 25 | 197 | 4.8 | 9.7 | 0.00 | 0.00 | 0.00 | 33 | 1014.1 |
| 20260504211844 | 24 | 228 | 9.7 | 20.9 | 0.00 | 0.00 | 0.00 | 33 | 1014.2 |
| 20260504211340 | 25 | 166 | 6.4 | 9.7 | 0.00 | 0.00 | 0.00 | 32 | 1014.0 |
| 20260504210837 | 25 | 171 | 6.4 | 12.9 | 0.00 | 0.00 | 0.00 | 35 | 1014.1 |
| 20260504210334 | 25 | 151 | 9.7 | 20.9 | 0.00 | 0.00 | 0.00 | 34 | 1014.3 |
| 20260504205831 | 25 | 156 | 8.0 | 11.3 | 0.00 | 0.00 | 0.00 | 35 | 1014.1 |
| 20260504205329 | 24 | 146 | 8.0 | 14.5 | 0.00 | 0.00 | 0.00 | 34 | 1014.2 |
| 20260504204827 | 25 | 211 | 8.0 | 12.9 | 0.00 | 0.00 | 0.00 | 33 | 1014.2 |
| 20260504204325 | 25 | 210 | 8.0 | 11.3 | 0.00 | 0.00 | 0.00 | 32 | 1014.2 |
| 20260504203824 | 25 | 211 | 14.5 | 16.1 | 0.00 | 0.00 | 0.00 | 33 | 1014.3 |
| 20260504203321 | 25 | 193 | 8.0 | 14.5 | 0.00 | 0.00 | 0.00 | 32 | 1014.3 |
| 20260504202816 | 25 | 298 | 3.2 | 11.3 | 0.00 | 0.00 | 0.00 | 31 | 1014.3 |
| 20260504202314 | 26 | 264 | 8.0 | 17.7 | 0.00 | 0.00 | 0.00 | 33 | 1014.4 |
| 20260504201810 | 25 | 151 | 1.6 | 8.0 | 0.00 | 0.00 | 0.00 | 32 | 1014.6 |
| 20260504201308 | 25 | 213 | 1.6 | 14.5 | 0.00 | 0.00 | 0.00 | 32 | 1014.5 |
| 20260504200805 | 25 | 223 | 8.0 | 12.9 | 0.00 | 0.00 | 0.00 | 32 | 1014.5 |
| 20260504200301 | 25 | 170 | 12.9 | 17.7 | 0.00 | 0.00 | 0.00 | 32 | 1014.8 |
| 20260504195758 | 25 | 159 | 11.3 | 12.9 | 0.00 | 0.00 | 0.00 | 30 | 1014.8 |
| 20260504195254 | 25 | 298 | 3.2 | 11.3 | 0.00 | 0.00 | 0.00 | 30 | 1015.0 |
| 20260504194751 | 25 | 214 | 3.2 | 14.5 | 0.00 | 0.00 | 0.00 | 30 | 1014.8 |
| 20260504194247 | 25 | 196 | 9.7 | 12.9 | 0.00 | 0.00 | 0.00 | 31 | 1014.9 |
| 20260504193743 | 25 | 232 | 4.8 | 9.7 | 0.00 | 0.00 | 0.00 | 31 | 1015.0 |
| 20260504193241 | 25 | 209 | 4.8 | 4.8 | 0.00 | 0.00 | 0.00 | 30 | 1014.9 |
| 20260504192739 | 25 | 222 | 6.4 | 12.9 | 0.00 | 0.00 | 0.00 | 33 | 1015.2 |
| 20260504192237 | 25 | 130 | 12.9 | 17.7 | 0.00 | 0.00 | 0.00 | 32 | 1015.1 |
| 20260504191735 | 25 | 276 | 8.0 | 11.3 | 0.00 | 0.00 | 0.00 | 31 | 1015.5 |
| 20260504191232 | 25 | 227 | 11.3 | 14.5 | 0.00 | 0.00 | 0.00 | 30 | 1015.2 |
| 20260504190727 | 25 | 211 | 4.8 | 8.0 | 0.00 | 0.00 | 0.00 | 32 | 1015.4 |
| 20260504190224 | 25 | 211 | 11.3 | 12.9 | 0.00 | 0.00 | 0.00 | 31 | 1015.5 |
| 20260504185720 | 25 | 184 | 6.4 | 14.5 | 0.00 | 0.00 | 0.00 | 34 | 1015.3 |
| 20260504185217 | 25 | 196 | 11.3 | 14.5 | 0.00 | 0.00 | 0.00 | 32 | 1015.4 |
| 20260504184713 | 23 | 179 | 4.8 | 11.3 | 0.00 | 0.00 | 0.00 | 33 | 1015.4 |
| 20260504184209 | 23 | 170 | 4.8 | 11.3 | 0.00 | 0.00 | 0.00 | 33 | 1015.6 |
| 20260504183705 | 23 | 166 | 4.8 | 12.9 | 0.00 | 0.00 | 0.00 | 35 | 1015.6 |
| 20260504183202 | 23 | 178 | 9.7 | 16.1 | 0.00 | 0.00 | 0.00 | 32 | 1015.7 |
| 20260504182700 | 23 | 264 | 6.4 | 12.9 | 0.00 | 0.00 | 0.00 | 34 | 1015.7 |
| 20260504182157 | 23 | 161 | 8.0 | 16.1 | 0.00 | 0.00 | 0.00 | 33 | 1015.8 |
| 20260504181655 | 23 | 232 | 4.8 | 11.3 | 0.00 | 0.00 | 0.00 | 32 | 1015.8 |
| 20260504181152 | 23 | 164 | 11.3 | 14.5 | 0.00 | 0.00 | 0.00 | 33 | 1015.8 |
| 20260504180651 | 23 | 113 | 6.4 | 14.5 | 0.00 | 0.00 | 0.00 | 32 | 1016.1 |
| 20260504180150 | 23 | 157 | 4.8 | 12.9 | 0.00 | 0.00 | 0.00 | 33 | 1015.9 |
| 20260504175647 | 23 | 144 | 6.4 | 9.7 | 0.00 | 0.00 | 0.00 | 33 | 1016.1 |
| 20260504175143 | 23 | 166 | 4.8 | 12.9 | 0.00 | 0.00 | 0.00 | 32 | 1016.1 |
| 20260504174641 | 23 | 166 | 11.3 | 17.7 | 0.00 | 0.00 | 0.00 | 32 | 1016.2 |
| 20260504174137 | 23 | 192 | 11.3 | 12.9 | 0.00 | 0.00 | 0.00 | 31 | 1016.2 |
| 20260504173635 | 23 | 111 | 4.8 | 9.7 | 0.00 | 0.00 | 0.00 | 31 | 1016.2 |
| 20260504173132 | 23 | 216 | 0.0 | 3.2 | 0.00 | 0.00 | 0.00 | 30 | 1016.6 |
| 20260504172629 | 23 | 248 | 4.8 | 8.0 | 0.00 | 0.00 | 0.00 | 31 | 1016.2 |
| 20260504172125 | 22 | 196 | 9.7 | 12.9 | 0.00 | 0.00 | 0.00 | 32 | 1016.1 |
| 20260504171621 | 22 | 148 | 8.0 | 12.9 | 0.00 | 0.00 | 0.00 | 31 | 1016.7 |
| 20260504171119 | 23 | 166 | 11.3 | 12.9 | 0.00 | 0.00 | 0.00 | 32 | 1016.3 |
| 20260504170615 | 23 | 163 | 0.0 | 12.9 | 0.00 | 0.00 | 0.00 | 32 | 1016.9 |
| 20260504170113 | 23 | 230 | 4.8 | 8.0 | 0.00 | 0.00 | 0.00 | 32 | 1016.9 |
| 20260504150958 | 20 | 179 | 0.0 | 9.7 | 0.00 | 0.00 | 0.00 | 40 | 1018.1 |
| 20260504150455 | 20 | 262 | 4.8 | 9.7 | 0.00 | 0.00 | 0.00 | 38 | 1017.9 |
| 20260504140922 | 18 | 222 | 3.2 | 4.8 | 0.00 | 0.00 | 0.00 | 50 | 1017.8 |
| 20260504140418 | 18 | 325 | 3.2 | 4.8 | 0.00 | 0.00 | 0.00 | 53 | 1017.9 |
| 20260504130343 | 12 | 273 | 4.8 | 4.8 | 0.00 | 0.00 | 0.00 | 76 | 1017.9 |
| 20260504120306 | 8 | 257 | 1.6 | 3.2 | 0.00 | 0.00 | 0.00 | 89 | 1017.6 |
| 20260504110230 | 3 | 275 | 0.0 | 0.0 | 0.00 | 0.00 | 0.00 | 89 | 1017.4 |
| 20260504100154 | 4 | 12 | 0.0 | 0.0 | 0.00 | 0.00 | 0.00 | 88 | 1017.0 |
| 20260504090116 | 4 | 124 | 0.0 | 0.0 | 0.00 | 0.00 | 0.00 | 87 | 1017.4 |
| 20260504081547 | 6 | 173 | 0.0 | 0.0 | 0.00 | 0.00 | 0.00 | 87 | 1016.9 |
| 20260504081042 | 6 | 197 | 0.0 | 0.0 | 0.00 | 0.00 | 0.00 | 87 | 1016.8 |
| 20260504080539 | 5 | 174 | 0.0 | 0.0 | 0.00 | 0.00 | 0.00 | 87 | 1016.7 |